Regional Weather Roundup
Issued by NWS

Home | Current Version | Previous Version | Text Only | Print | Product List | Glossary Off
Versions: 1 2 3 4 5 6 7 8 9 10 11 12 13 14 15 16 17 18 19 20 21 22 23 24 25 26 27 28 29 30 31 32 33 34 35 36 37 38 39 40 41 42 43 44 45 46 47 48 49 50

000
ASUS43 KLOT 230406
RWRIL

ILLINOIS REGIONAL WEATHER ROUNDUP
NATIONAL WEATHER SERVICE CHICAGO/ROMEOVILLE IL
1100 PM CDT TUE JUL 22 2014

NOTE: "FAIR" INDICATES FEW OR NO CLOUDS BELOW 12,000 FEET WITH NO
SIGNIFICANT WEATHER AND/OR OBSTRUCTIONS TO VISIBILITY.

* THESE STATIONS ARE NOT UNDER NWS QUALITY CONTROL. THEY ALSO MAY NOT
  REPORT WEATHER SUCH AS PRECIPITATION OR FOG.

ILZ001-002-007-009-015-016-024-230500-
NORTHWEST ILLINOIS

CITY           SKY/WX    TMP DP  RH WIND       PRES   REMARKS
MOLINE         PTCLDY    82  71  69 NW7       30.00R HX  86
STERLING*      MOCLDY    77  73  88 NW6       30.00R
SAVANNA*       PTCLDY    79  68  69 N7        30.00R HX  81
$$

ILZ003-004-008-010-011-017-018-230500-
NORTH CENTRAL ILLINOIS

CITY           SKY/WX    TMP DP  RH WIND       PRES   REMARKS
ROCKFORD       MOCLDY    81  70  69 N10       30.00R HX  84
FREEPORT*      CLEAR     76  71  83 N6        30.03R
ROCHELLE*      MOCLDY    78  74  87 W8        29.99R HX  81
DE KALB*       CLOUDY    77  74  90 W9        29.99R
PERU*          MOCLDY    78  74  85 W9        29.99S HX  81
$$

ILZ005-006-012>014-019>023-230500-
NORTHEAST ILLINOIS

CITY           SKY/WX    TMP DP  RH WIND       PRES   REMARKS
CHICAGO-OHARE  MOCLDY    82  72  71 SW13      29.93F HX  87
CHICAGO-MIDWAY CLOUDY    84  76  76 SW14      29.94F HX  93
AURORA         MOCLDY    79  73  82 SW9       29.96F HAZE    HX  82
LANSING*       CLEAR     79  73  80 SW9       29.96S HX  82
JOLIET*        MOCLDY    80  73  78 SW6       29.97S HX  83
WAUKEGAN       CLOUDY    75  70  84 N6        29.96R
DUPAGE AIRPORT MOCLDY    79  75  87 W12       29.95F HX  83
KANKAKEE*      MOCLDY    76  74  92 SW8       29.99S
WHEELING       TSTM      83  75  77 NW10      29.96R HX  90
MORRIS*        CLOUDY    79  75  88 W5        29.96F HX  82
ROMEOVILLE*    MOCLDY    79  73  81 W9        29.96S HX  83
NORTHERLY ISL    N/A     83  72  69 W5          N/A  HX  88
$$

LMZ740>746-230500-
SOUTHERN LAKE MICHIGAN

STATION/POSITION SKY/WX   TEMP    WIND        PRES    VSBY  WAVE
                          AIR SEA DIR/SP/G                  HT/PER
                          (F)     (DEG/KT/KT) (MB)    (MI)  (FT/S)
SOUTHERN BUOY              71 66  340/ 17/ 21 1013.9R         1/ 4
WAUKEGAN HARBOR            72     360/  8     1015.2S
HARRISON CRIB              82     250/ 16/ 19   N/A
BURNHAM HARBOR             82     250/  9/ 12   N/A
CALUMET HARBOR             82     230/  5/  9 1013.3R
MICHIGAN CITY              79     190/ 10/ 13   N/A
$$

ILZ025>027-034>036-040-047-049-050-058-095>099-230500-
WEST-CENTRAL ILLINOIS

CITY           SKY/WX    TMP DP  RH WIND       PRES   REMARKS
QUINCY         MOCLDY    79  76  90 S3        30.01S HX  83
GALESBURG*     MOCLDY    76  76  98 W3        30.01S FOG
MACOMB*        MOCLDY    76  75  97 CALM      30.03S FOG
JACKSONVILLE*  MOCLDY    79  76  91 S3        30.01F HX  83
PITTSFIELD*    MOCLDY    79  75  89 E3        30.00F FOG     HX  82
$$

ILZ028>032-037-038-041>044-048-051>054-059>061-230500-
CENTRAL ILLINOIS

CITY           SKY/WX    TMP DP  RH WIND       PRES   REMARKS
PONTIAC        MOCLDY    79  75  89 SW3       29.99S FOG     HX  82
BLOOMINGTON    CLOUDY    77  73  87 W5        30.02F
PEORIA         MOCLDY    81  74  79 SW5       30.00F HX  86
LACON*         PTCLDY    77  74  88 SW5       29.98F
LINCOLN*       MOCLDY    78  73  83 CALM      29.98F HX  81
SPRINGFIELD    MOCLDY    81  72  74 SW6       30.01F HX  85
TAYLORVILLE    CLOUDY    73  70  88 S6        30.02F
$$

ILZ033-039-045-046-055>057-062-063-230500-
EAST-CENTRAL ILLINOIS

CITY           SKY/WX    TMP DP  RH WIND       PRES   REMARKS
CHAMPAIGN      MOCLDY    75  71  87 SW8       30.02F
RANTOUL*       PTCLDY    76  72  85 SW6       30.01F
MATTOON        PTCLDY    76  68  76 SW6       30.03S
PARIS*         PTCLDY    72  69  92 SW5       30.03F FOG
$$

ILZ079-100>102-230500-
SOUTHWEST ILLINOIS

CITY           SKY/WX    TMP DP  RH WIND       PRES   REMARKS
ALTON          CLOUDY    78  73  86 SE7       30.03S HX  80
CAHOKIA*       MOCLDY    80  70  71 S6        30.02R HX  83
SPARTA*        PTCLDY    79  68  69 S8        30.04F HX  81
$$

ILZ064>066-069>071-074>076-080>082-084>086-088>090-092>094-230500-
SOUTH-CENTRAL ILLINOIS

CITY           SKY/WX    TMP DP  RH WIND       PRES   REMARKS
CARBONDALE     CLEAR     73  69  87 SW3       30.04F
CAIRO*         CLEAR     76  71  86 CALM      30.06F
MARION         CLEAR     73  70  88 S5        30.05F
MT. VERNON     PTCLDY    73  66  78 SW3       30.04F
CENTRALIA*     PTCLDY    73  67  79 CALM      30.05R
SALEM*         PTCLDY    77  70  79 CALM      30.06R
METROPOLIS*    CLEAR     72  69  88 CALM      30.06F FOG
$$

ILZ067-068-072-073-078-083-087-091-230500-
SOUTHEAST ILLINOIS

CITY           SKY/WX    TMP DP  RH WIND       PRES   REMARKS
FAIRFIELD*     CLEAR     75  72  88 CALM      30.03R FOG
HARRISBURG*    CLEAR     71  71  98 SE5       30.06F FOG
ROBINSON*      CLEAR     73  71  92 CALM      30.04R
CARMI*         CLEAR     72  71  97 S6        30.02F
$$

ABBREVIATIONS USED IN REMARKS
   TC - TEMPERATURE IN CELSIUS
  WCI - WIND CHILL INDEX
   HX - HEAT INDEX
  VSB - VISIBILITY
$$




USA.gov is the U.S. government's official web portal to all federal, state and local government web resources and services.